Retour au catalogue

STARLINK-5436

ActifCommunicationsVLEO
NORAD 54795·PAYLOAD·🇺🇸 United States

Lancé Dec 17, 2022 depuis Cape Canaveral Space Force Station

Loading…

Prochains Passages (prochaines 24 heures)

TLE

FraisSource: CelesTrak SupGP

Époque: Sep 14, 2026, 21:05 UTC

1 54795C 22175AP  26257.87895833  .00041828  00000+0  12358-2 0  2570
2 54795  53.1563 243.9817 0001252  98.7072  39.2214 15.34370230    12

Suivez STARLINK-5436 en temps réel avec AllMySat

Download on the App Store